sat.trackr.live / text

‹ back to catalog

STARLINK-6345

NORAD 56790 · 2023-078Z

PAYLOAD ACTIVE UNKNOWN

§ Identity

Operator
Country
US
Launch date
2023-05-31
Launch site
AFWTR
Launch vehicle
Mass (kg)
RCS (m²)

Purposes: comms

External: N2YO · Heavens-Above · Gunter

§ Orbital elements

Epoch: 2026-05-25T04:27:10.588608Z

Period
96.11 min
Inclination
69.9993°
Eccentricity
0.0003275
Mean motion
14.98336628 rev/d
Perigee alt
569.8 km
Apogee alt
574.3 km
Semi-major
6,950.2 km
B*
1.6054e-5
RAAN
111.6296°
Arg perigee
267.1349°
Mean anomaly
92.9435°
Rev number
16,512

§ Raw data

STARLINK-63451 56790U 23078Z   26145.18553922  .00000099  00000+0  16054-4 0  99972 56790  69.9993 111.6296 0003275 267.1349  92.9435 14.98336628165126

JSON: /api/v1/satellites/56790 · /tle

For live sub-satellite position, see the globe view (requires WebGL).

§ Visibility from observer

Set your observer location to see the next 7 days of passes ≥ 10°. The values pass through the URL so the page stays shareable.

No JS? Fill the form by hand. The geolocation button needs JavaScript.